DLH6VX EDDF-ESSA

Flight info

Callsign DLH6VX
Flight time 1h 37m
Altitude 39000
Route MARUN8M MARUN Y150 TOLGI DCT OBATU DCT BERIM DCT ROSOK DCT SONAL DCT VIBAR Z227 NILUG
Aircraft A320/M-SDE2E3FGIJ1LORWXYZ/HB1

Departure

Time 2026-05-05 14:31
Airport Frankfurt Main Airport (EDDF)

Arrival

Time 2026-05-05 16:08
Airport Stockholm-Arlanda Airport (ESSA)
Time Latitude Longitude Altitude Speed Heading
2026-05-05 13:42 50.04917 8.57089 356 ft 0 kts 97°
2026-05-05 14:20 50.04917 8.57090 356 ft 0 kts 97°
2026-05-05 14:25 50.04917 8.57091 356 ft 1 kts 98°
2026-05-05 14:25 50.04913 8.57095 360 ft 2 kts 140°
2026-05-05 14:25 50.04860 8.57081 359 ft 14 kts 197°
2026-05-05 14:26 50.04752 8.57004 356 ft 21 kts 203°
2026-05-05 14:26 50.04612 8.56913 356 ft 21 kts 194°
2026-05-05 14:26 50.04486 8.56866 359 ft 17 kts 193°
2026-05-05 14:26 50.04372 8.56836 360 ft 15 kts 191°
2026-05-05 14:27 50.04352 8.56830 360 ft 0 kts 191°
2026-05-05 14:27 50.04350 8.56829 360 ft 1 kts 191°
2026-05-05 14:28 50.04322 8.56820 360 ft 7 kts 191°
2026-05-05 14:28 50.04276 8.56876 360 ft 12 kts 107°
2026-05-05 14:28 50.04304 8.57020 362 ft 17 kts 70°
2026-05-05 14:28 50.04349 8.57207 363 ft 21 kts 69°
2026-05-05 14:29 50.04391 8.57381 362 ft 13 kts 70°
2026-05-05 14:29 50.04422 8.57515 363 ft 15 kts 70°
2026-05-05 14:29 50.04409 8.57632 368 ft 9 kts 130°
2026-05-05 14:29 50.04344 8.57682 363 ft 16 kts 160°
2026-05-05 14:30 50.04277 8.57707 362 ft 3 kts 216°
2026-05-05 14:30 50.04268 8.57673 368 ft 6 kts 246°
2026-05-05 14:30 50.04188 8.57338 369 ft 70 kts 249°
2026-05-05 14:30 50.03942 8.56304 356 ft 132 kts 250°
2026-05-05 14:31 50.03578 8.54800 721 ft 152 kts 248°
2026-05-05 14:31 50.03208 8.53252 1470 ft 152 kts 249°
2026-05-05 14:31 50.02824 8.51649 2006 ft 168 kts 249°
2026-05-05 14:31 50.02171 8.50046 2376 ft 189 kts 216°
2026-05-05 14:32 50.00906 8.49268 2888 ft 200 kts 198°
2026-05-05 14:32 49.99578 8.48669 3544 ft 203 kts 197°
2026-05-05 14:32 49.98221 8.48049 4225 ft 204 kts 197°
2026-05-05 14:32 49.96849 8.47416 4891 ft 207 kts 197°
2026-05-05 14:33 49.95462 8.46773 5510 ft 212 kts 197°
2026-05-05 14:33 49.93973 8.46088 5870 ft 235 kts 197°
2026-05-05 14:33 49.92374 8.45345 6585 ft 243 kts 199°
2026-05-05 14:33 49.90945 8.43943 7390 ft 249 kts 228°
2026-05-05 14:34 49.90169 8.41529 8235 ft 257 kts 259°
2026-05-05 14:34 49.90336 8.38764 9082 ft 266 kts 291°
2026-05-05 14:34 49.91475 8.36527 9861 ft 276 kts 326°
2026-05-05 14:34 49.93257 8.35205 10338 ft 296 kts 337°
2026-05-05 14:35 49.95240 8.33936 10633 ft 320 kts 337°
2026-05-05 14:35 49.97361 8.32572 11065 ft 337 kts 337°
2026-05-05 14:35 49.99547 8.31157 11770 ft 343 kts 336°
2026-05-05 14:35 50.01778 8.29775 12539 ft 348 kts 342°
2026-05-05 14:36 50.04165 8.29006 13309 ft 353 kts 355°
2026-05-05 14:36 50.06626 8.29062 14014 ft 357 kts
2026-05-05 14:36 50.09052 8.29959 14680 ft 360 kts 19°
2026-05-05 14:36 50.11404 8.31213 15341 ft 364 kts 19°
2026-05-05 14:37 50.13818 8.32488 15989 ft 368 kts 19°
2026-05-05 14:37 50.16264 8.33771 16637 ft 373 kts 19°
2026-05-05 14:37 50.18733 8.35062 17281 ft 377 kts 19°
2026-05-05 14:37 50.21237 8.36371 17895 ft 382 kts 19°
2026-05-05 14:38 50.23772 8.37700 18493 ft 386 kts 19°
2026-05-05 14:38 50.26332 8.39044 19137 ft 390 kts 19°
2026-05-05 14:38 50.28920 8.40407 19721 ft 395 kts 19°
2026-05-05 14:38 50.31531 8.41798 20262 ft 398 kts 19°
2026-05-05 14:39 50.34124 8.43207 20791 ft 402 kts 20°
2026-05-05 14:39 50.36771 8.44661 21324 ft 405 kts 20°
2026-05-05 14:39 50.39439 8.46128 21849 ft 408 kts 20°
2026-05-05 14:39 50.42128 8.47605 22374 ft 411 kts 20°
2026-05-05 14:40 50.44842 8.49096 22925 ft 415 kts 20°
2026-05-05 14:40 50.47577 8.50594 23457 ft 419 kts 19°
2026-05-05 14:40 50.50358 8.52037 23901 ft 422 kts 18°
2026-05-05 14:40 50.53172 8.53402 24316 ft 425 kts 17°
2026-05-05 14:41 50.56020 8.54727 24717 ft 428 kts 17°
2026-05-05 14:41 50.58854 8.56031 25121 ft 431 kts 16°
2026-05-05 14:41 50.61739 8.57369 25523 ft 434 kts 16°
2026-05-05 14:41 50.64642 8.58736 25921 ft 437 kts 16°
2026-05-05 14:42 50.67565 8.60133 26338 ft 440 kts 17°
2026-05-05 14:42 50.70502 8.61548 26734 ft 443 kts 17°
2026-05-05 14:42 50.73464 8.62985 27116 ft 446 kts 17°
2026-05-05 14:42 50.76438 8.64439 27496 ft 449 kts 18°
2026-05-05 14:43 50.79324 8.66352 27852 ft 452 kts 28°
2026-05-05 14:43 50.81998 8.68992 28226 ft 454 kts 38°
2026-05-05 14:43 50.84382 8.72275 28584 ft 456 kts 47°
2026-05-05 14:43 50.86398 8.76063 28932 ft 457 kts 54°
2026-05-05 14:44 50.88324 8.80082 29285 ft 460 kts 54°
2026-05-05 14:44 50.90259 8.84127 29639 ft 463 kts 54°
2026-05-05 14:44 50.92206 8.88203 29971 ft 465 kts 55°
2026-05-05 14:44 50.94165 8.92310 30258 ft 468 kts 55°
2026-05-05 14:45 50.96133 8.96440 30544 ft 470 kts 55°
2026-05-05 14:45 50.98109 9.00586 30826 ft 473 kts 55°
2026-05-05 14:45 51.00099 9.04771 31117 ft 476 kts 55°
2026-05-05 14:45 51.02098 9.08979 31400 ft 478 kts 55°
2026-05-05 14:46 51.04070 9.13144 31785 ft 478 kts 55°
2026-05-05 14:46 51.06062 9.17369 32165 ft 478 kts 55°
2026-05-05 14:46 51.08182 9.21450 32593 ft 480 kts 47°
2026-05-05 14:46 51.10680 9.24979 32941 ft 482 kts 37°
2026-05-05 14:47 51.13515 9.27815 33285 ft 483 kts 26°
2026-05-05 14:47 51.16605 9.29885 33633 ft 482 kts 16°
2026-05-05 14:47 51.19857 9.31185 33940 ft 481 kts 10°
2026-05-05 14:47 51.23132 9.32292 34264 ft 481 kts
2026-05-05 14:48 51.26394 9.33412 34598 ft 480 kts 10°
2026-05-05 14:48 51.29614 9.34528 34920 ft 479 kts 10°
2026-05-05 14:48 51.32874 9.35665 35250 ft 479 kts 10°
2026-05-05 14:48 51.36124 9.36802 35551 ft 478 kts 10°
2026-05-05 14:49 51.39370 9.37942 35837 ft 477 kts 10°
2026-05-05 14:49 51.42606 9.39078 36147 ft 476 kts 10°
2026-05-05 14:49 51.45840 9.40214 36437 ft 475 kts
2026-05-05 14:49 51.49074 9.41347 36724 ft 474 kts
2026-05-05 14:50 51.52292 9.42473 37003 ft 474 kts
2026-05-05 14:50 51.55515 9.43604 37279 ft 473 kts
2026-05-05 14:50 51.58684 9.44719 37528 ft 472 kts
2026-05-05 14:50 51.61890 9.45848 37814 ft 472 kts 10°
2026-05-05 14:51 51.65096 9.46979 38131 ft 471 kts 10°
2026-05-05 14:51 51.68297 9.48109 38452 ft 470 kts
2026-05-05 14:51 51.71483 9.49237 38699 ft 468 kts
2026-05-05 14:51 51.74657 9.50362 38834 ft 468 kts
2026-05-05 14:52 51.81004 9.52717 38868 ft 469 kts 15°
2026-05-05 14:52 51.86906 9.57211 38870 ft 473 kts 30°
2026-05-05 14:53 51.92483 9.62738 38879 ft 473 kts 29°
2026-05-05 14:53 51.98100 9.68269 38879 ft 472 kts 30°
2026-05-05 14:54 52.03718 9.73822 38887 ft 473 kts 30°
2026-05-05 14:54 52.09328 9.79404 38896 ft 473 kts 30°
2026-05-05 14:55 52.14930 9.85018 38913 ft 473 kts 29°
2026-05-05 14:55 52.20487 9.90590 38898 ft 472 kts 29°
2026-05-05 14:56 52.26085 9.96217 38897 ft 473 kts 29°
2026-05-05 14:56 52.31682 10.01862 38899 ft 473 kts 29°
2026-05-05 14:57 52.37283 10.07526 38921 ft 473 kts 29°
2026-05-05 14:57 52.42870 10.13197 38921 ft 472 kts 29°
2026-05-05 14:58 52.48411 10.18825 38919 ft 471 kts 29°
2026-05-05 14:58 52.53984 10.24499 38916 ft 471 kts 29°
2026-05-05 14:59 52.59537 10.30193 38929 ft 470 kts 30°
2026-05-05 14:59 52.65079 10.35891 38932 ft 469 kts 30°
2026-05-05 15:00 52.69672 10.40621 38929 ft 468 kts 30°
2026-05-05 15:00 52.76112 10.47166 38929 ft 467 kts 28°
2026-05-05 15:01 52.81672 10.52718 38941 ft 467 kts 28°
2026-05-05 15:01 52.87213 10.58280 38935 ft 465 kts 29°
2026-05-05 15:02 52.92733 10.63876 38936 ft 465 kts 29°
2026-05-05 15:02 52.98202 10.69447 38935 ft 464 kts 29°
2026-05-05 15:03 53.03704 10.75062 38921 ft 464 kts 29°
2026-05-05 15:03 53.09209 10.80675 38920 ft 464 kts 29°
2026-05-05 15:04 53.14713 10.86314 38926 ft 465 kts 29°
2026-05-05 15:04 53.20181 10.91936 38921 ft 465 kts 29°
2026-05-05 15:05 53.28424 11.00471 38942 ft 465 kts 29°
2026-05-05 15:06 53.33921 11.06167 38944 ft 465 kts 29°
2026-05-05 15:06 53.39412 11.11869 38940 ft 465 kts 29°
2026-05-05 15:07 53.44864 11.17549 38938 ft 464 kts 29°
2026-05-05 15:07 53.50355 11.23289 38936 ft 466 kts 29°
2026-05-05 15:08 53.55858 11.29063 38923 ft 467 kts 29°
2026-05-05 15:08 53.61379 11.34871 38922 ft 469 kts 30°
2026-05-05 15:09 53.66902 11.40720 38924 ft 469 kts 30°
2026-05-05 15:09 53.72389 11.46545 38937 ft 470 kts 30°
2026-05-05 15:10 53.77783 11.52833 38924 ft 472 kts 34°
2026-05-05 15:10 53.83015 11.59545 38922 ft 473 kts 35°
2026-05-05 15:11 53.88250 11.66291 38928 ft 473 kts 34°
2026-05-05 15:11 53.93495 11.72881 38945 ft 473 kts 33°
2026-05-05 15:12 53.98799 11.79494 38941 ft 473 kts 33°
2026-05-05 15:12 54.04086 11.86144 38941 ft 473 kts 34°
2026-05-05 15:13 54.09364 11.92837 38946 ft 473 kts 34°
2026-05-05 15:13 54.14610 11.99488 38946 ft 473 kts 34°
2026-05-05 15:14 54.19884 12.06216 38970 ft 473 kts 34°
2026-05-05 15:14 54.25413 12.12216 38964 ft 470 kts 28°
2026-05-05 15:15 54.31009 12.17998 38958 ft 470 kts 28°
2026-05-05 15:15 54.36561 12.23765 38956 ft 470 kts 28°
2026-05-05 15:16 54.42146 12.29603 38972 ft 470 kts 28°
2026-05-05 15:16 54.47727 12.35439 38965 ft 469 kts 28°
2026-05-05 15:17 54.53303 12.41295 38960 ft 469 kts 28°
2026-05-05 15:17 54.58837 12.47116 38950 ft 469 kts 28°
2026-05-05 15:18 54.64408 12.53003 38971 ft 470 kts 28°
2026-05-05 15:18 54.69981 12.58910 38965 ft 470 kts 28°
2026-05-05 15:19 54.75552 12.64820 38957 ft 470 kts 28°
2026-05-05 15:19 54.81117 12.70757 38956 ft 470 kts 28°
2026-05-05 15:20 54.86646 12.76676 38975 ft 470 kts 28°
2026-05-05 15:20 54.92121 12.82920 38962 ft 471 kts 32°
2026-05-05 15:21 54.97456 12.89572 38958 ft 472 kts 33°
2026-05-05 15:21 55.02768 12.96305 38945 ft 472 kts 33°
2026-05-05 15:22 55.08067 13.02909 38952 ft 471 kts 32°
2026-05-05 15:22 55.13425 13.09526 38960 ft 472 kts 32°
2026-05-05 15:23 55.18783 13.16174 38954 ft 472 kts 32°
2026-05-05 15:23 55.24128 13.22846 38945 ft 472 kts 32°
2026-05-05 15:24 55.29471 13.29550 38937 ft 472 kts 32°
2026-05-05 15:24 55.34806 13.36276 38940 ft 472 kts 33°
2026-05-05 15:25 55.40100 13.42971 38930 ft 472 kts 32°
2026-05-05 15:25 55.45434 13.49712 38944 ft 472 kts 32°
2026-05-05 15:26 55.50756 13.56471 38936 ft 472 kts 32°
2026-05-05 15:26 55.56074 13.63256 38944 ft 471 kts 32°
2026-05-05 15:27 55.61354 13.70002 38938 ft 472 kts 32°
2026-05-05 15:27 55.66676 13.76817 38937 ft 472 kts 33°
2026-05-05 15:28 55.71989 13.83653 38930 ft 472 kts 33°
2026-05-05 15:28 55.77301 13.90525 38927 ft 472 kts 33°
2026-05-05 15:29 55.82569 13.97380 38931 ft 473 kts 33°
2026-05-05 15:29 55.87876 14.04295 38924 ft 473 kts 33°
2026-05-05 15:30 55.93189 14.11214 38909 ft 473 kts 33°
2026-05-05 15:30 55.98492 14.18162 38905 ft 473 kts 33°
2026-05-05 15:31 56.03795 14.25141 38929 ft 474 kts 33°
2026-05-05 15:31 56.09060 14.32099 38922 ft 474 kts 33°
2026-05-05 15:32 56.14365 14.39140 38906 ft 474 kts 33°
2026-05-05 15:32 56.19648 14.46155 38909 ft 474 kts 33°
2026-05-05 15:33 56.24949 14.53207 38904 ft 474 kts 33°
2026-05-05 15:33 56.30214 14.60258 38913 ft 475 kts 33°
2026-05-05 15:34 56.35510 14.67383 38906 ft 475 kts 33°
2026-05-05 15:34 56.40813 14.74533 38905 ft 476 kts 33°
2026-05-05 15:35 56.46114 14.81694 38907 ft 476 kts 33°
2026-05-05 15:35 56.51381 14.88834 38931 ft 476 kts 33°
2026-05-05 15:36 56.56678 14.96045 38919 ft 477 kts 33°
2026-05-05 15:36 56.61974 15.03292 38912 ft 477 kts 33°
2026-05-05 15:37 56.67261 15.10558 38907 ft 477 kts 33°
2026-05-05 15:37 56.72548 15.17840 38905 ft 476 kts 33°
2026-05-05 15:38 56.77790 15.25082 38918 ft 476 kts 33°
2026-05-05 15:38 56.83060 15.32401 38909 ft 476 kts 33°
2026-05-05 15:39 56.88329 15.39745 38903 ft 476 kts 33°
2026-05-05 15:39 56.93594 15.47103 38885 ft 476 kts 34°
2026-05-05 15:40 56.98822 15.54431 38910 ft 477 kts 34°
2026-05-05 15:40 57.04087 15.61836 38899 ft 477 kts 34°
2026-05-05 15:41 57.09352 15.69274 38897 ft 477 kts 34°
2026-05-05 15:41 57.14611 15.76728 38895 ft 478 kts 34°
2026-05-05 15:42 57.19872 15.84212 38897 ft 478 kts 34°
2026-05-05 15:42 57.25095 15.91684 38906 ft 478 kts 34°
2026-05-05 15:43 57.30356 15.99231 38899 ft 479 kts 34°
2026-05-05 15:43 57.35613 16.06793 38900 ft 479 kts 34°
2026-05-05 15:44 57.40877 16.14395 38898 ft 479 kts 34°
2026-05-05 15:44 57.46137 16.22028 38908 ft 481 kts 34°
2026-05-05 15:45 57.51407 16.29693 38905 ft 481 kts 34°
2026-05-05 15:45 57.54062 16.33552 38623 ft 492 kts 34°
2026-05-05 15:45 57.56797 16.37519 37753 ft 502 kts 33°
2026-05-05 15:45 57.59646 16.41126 37129 ft 502 kts 27°
2026-05-05 15:46 57.62621 16.44572 36511 ft 504 kts 27°
2026-05-05 15:46 57.65606 16.48050 36033 ft 507 kts 27°
2026-05-05 15:46 57.68596 16.51546 35489 ft 507 kts 27°
2026-05-05 15:46 57.71585 16.55046 34947 ft 508 kts 27°
2026-05-05 15:47 57.74576 16.58555 34394 ft 507 kts 27°
2026-05-05 15:47 57.76561 16.60884 34029 ft 507 kts 27°
2026-05-05 15:47 57.80557 16.65577 33247 ft 508 kts 27°
2026-05-05 15:47 57.83520 16.69059 32717 ft 509 kts 27°
2026-05-05 15:48 57.86523 16.72596 32175 ft 511 kts 27°
2026-05-05 15:48 57.89536 16.76155 31624 ft 512 kts 27°
2026-05-05 15:48 57.92548 16.79724 31130 ft 512 kts 27°
2026-05-05 15:48 57.95652 16.82929 30760 ft 504 kts 16°
2026-05-05 15:49 57.98923 16.85222 30517 ft 501 kts 13°
2026-05-05 15:49 58.02199 16.87469 30270 ft 500 kts 13°
2026-05-05 15:49 58.05464 16.89706 30006 ft 499 kts 13°
2026-05-05 15:49 58.08720 16.91935 29706 ft 497 kts 13°
2026-05-05 15:50 58.11963 16.94160 29387 ft 495 kts 13°
2026-05-05 15:50 58.15189 16.96380 29070 ft 492 kts 13°
2026-05-05 15:50 58.18361 16.98546 28765 ft 490 kts 13°
2026-05-05 15:50 58.21562 17.00739 28293 ft 488 kts 13°
2026-05-05 15:51 58.24742 17.02944 27620 ft 483 kts 13°
2026-05-05 15:51 58.27883 17.05140 26957 ft 479 kts 13°
2026-05-05 15:51 58.30990 17.07319 26310 ft 474 kts 13°
2026-05-05 15:51 58.34074 17.09481 25677 ft 470 kts 13°
2026-05-05 15:52 58.37125 17.11616 25056 ft 465 kts 13°
2026-05-05 15:52 58.40155 17.13729 24450 ft 461 kts 13°
2026-05-05 15:52 58.43156 17.15819 23858 ft 457 kts 13°
2026-05-05 15:52 58.46131 17.17898 23277 ft 453 kts 12°
2026-05-05 15:53 58.49035 17.19935 22589 ft 449 kts 12°
2026-05-05 15:53 58.51950 17.21989 21920 ft 445 kts 12°
2026-05-05 15:53 58.54846 17.24033 21265 ft 442 kts 12°
2026-05-05 15:53 58.57723 17.26066 20607 ft 439 kts 12°
2026-05-05 15:54 58.60577 17.28086 19978 ft 436 kts 12°
2026-05-05 15:54 58.63405 17.30092 19353 ft 428 kts 12°
2026-05-05 15:54 58.66142 17.32054 18746 ft 413 kts 12°
2026-05-05 15:54 58.68790 17.33961 18151 ft 400 kts 12°
2026-05-05 15:55 58.71358 17.35806 17474 ft 389 kts 12°
2026-05-05 15:55 58.73866 17.37598 16755 ft 381 kts 11°
2026-05-05 15:55 58.76302 17.39330 15980 ft 375 kts 11°
2026-05-05 15:55 58.78731 17.41051 15219 ft 369 kts 11°
2026-05-05 15:56 58.81126 17.42749 14472 ft 365 kts 11°
2026-05-05 15:56 58.83494 17.44437 13743 ft 361 kts 11°
2026-05-05 15:56 58.85864 17.46131 12934 ft 369 kts 12°
2026-05-05 15:56 58.88287 17.47860 12123 ft 374 kts 13°
2026-05-05 15:57 58.90735 17.49623 11341 ft 377 kts 14°
2026-05-05 15:57 58.93172 17.51389 10960 ft 368 kts 14°
2026-05-05 15:57 58.95525 17.53107 10725 ft 356 kts 14°
2026-05-05 15:57 58.97820 17.54782 10474 ft 349 kts 15°
2026-05-05 15:58 59.00081 17.56426 10199 ft 346 kts 16°
2026-05-05 15:58 59.02324 17.58054 9691 ft 343 kts 17°
2026-05-05 15:58 59.04547 17.59665 9137 ft 340 kts 17°
2026-05-05 15:58 59.06712 17.61239 8689 ft 334 kts 17°
2026-05-05 15:59 59.08874 17.62812 8284 ft 329 kts 17°
2026-05-05 15:59 59.11009 17.64368 7883 ft 326 kts 17°
2026-05-05 15:59 59.13124 17.65911 7486 ft 323 kts 17°
2026-05-05 15:59 59.15219 17.67442 7094 ft 320 kts 18°
2026-05-05 16:00 59.17292 17.68959 6719 ft 317 kts 18°
2026-05-05 16:00 59.19349 17.70468 6471 ft 315 kts 18°
2026-05-05 16:00 59.21398 17.71971 6213 ft 313 kts 18°
2026-05-05 16:00 59.23425 17.73461 5929 ft 311 kts 18°
2026-05-05 16:01 59.25450 17.74954 5687 ft 310 kts 17°
2026-05-05 16:01 59.27462 17.76440 5419 ft 308 kts 17°
2026-05-05 16:01 59.29433 17.77894 5157 ft 307 kts 18°
2026-05-05 16:01 59.31407 17.79355 4888 ft 295 kts 17°
2026-05-05 16:02 59.33248 17.80729 4628 ft 274 kts 18°
2026-05-05 16:02 59.34986 17.82026 4383 ft 261 kts 17°
2026-05-05 16:02 59.36643 17.83260 4129 ft 248 kts 17°
2026-05-05 16:02 59.38205 17.84426 4027 ft 233 kts 17°
2026-05-05 16:03 59.39709 17.85546 4033 ft 231 kts 16°
2026-05-05 16:03 59.41208 17.86656 4036 ft 230 kts 17°
2026-05-05 16:03 59.42688 17.87728 4031 ft 226 kts 14°
2026-05-05 16:03 59.44184 17.88438 3895 ft 218 kts
2026-05-05 16:04 59.45666 17.88970 3638 ft 216 kts
2026-05-05 16:04 59.47148 17.89493 3345 ft 215 kts
2026-05-05 16:04 59.48598 17.90012 3055 ft 209 kts
2026-05-05 16:04 59.49991 17.90513 2774 ft 202 kts
2026-05-05 16:05 59.51345 17.91001 2492 ft 193 kts
2026-05-05 16:05 59.52634 17.91465 2230 ft 185 kts
2026-05-05 16:05 59.53875 17.91912 1961 ft 176 kts
2026-05-05 16:05 59.55022 17.92326 1747 ft 164 kts
2026-05-05 16:06 59.56082 17.92710 1523 ft 148 kts
2026-05-05 16:06 59.57045 17.93058 1315 ft 134 kts
2026-05-05 16:06 59.57951 17.93387 1125 ft 133 kts
2026-05-05 16:06 59.58864 17.93713 950 ft 133 kts
2026-05-05 16:07 59.59787 17.94046 774 ft 137 kts
2026-05-05 16:07 59.60723 17.94388 584 ft 136 kts
2026-05-05 16:07 59.61662 17.94725 385 ft 138 kts
2026-05-05 16:07 59.62601 17.95069 200 ft 135 kts
2026-05-05 16:08 59.63463 17.95377 122 ft 110 kts 12°
2026-05-05 16:08 59.64048 17.95586 113 ft 61 kts 11°
2026-05-05 16:08 59.64348 17.95695 110 ft 39 kts
2026-05-05 16:08 59.64577 17.95640 108 ft 26 kts 341°
2026-05-05 16:09 59.64646 17.95593 107 ft 10 kts 340°
2026-05-05 16:09 59.64726 17.95535 107 ft 15 kts 340°
2026-05-05 16:09 59.64844 17.95471 107 ft 16 kts
2026-05-05 16:09 59.64954 17.95510 111 ft 16 kts 10°
2026-05-05 16:10 59.65058 17.95506 112 ft 14 kts 349°
2026-05-05 16:10 59.65153 17.95457 117 ft 14 kts 344°
2026-05-05 16:10 59.65250 17.95406 120 ft 17 kts 345°
2026-05-05 16:10 59.65388 17.95333 125 ft 24 kts 345°
2026-05-05 16:11 59.65563 17.95240 128 ft 27 kts 345°
2026-05-05 16:11 59.65709 17.94696 124 ft 20 kts 256°
2026-05-05 16:12 59.65674 17.94422 124 ft 20 kts 255°
2026-05-05 16:12 59.65597 17.93815 113 ft 27 kts 256°
2026-05-05 16:13 59.65448 17.93205 111 ft 5 kts 164°
2026-05-05 16:13 59.65416 17.93243 112 ft 6 kts 147°
2026-05-05 16:13 59.65374 17.93272 112 ft 6 kts 170°
2026-05-05 16:14 59.65333 17.93150 112 ft 2 kts 252°
2026-05-05 16:14 59.65330 17.93139 112 ft 0 kts 251°